This is the latest recevied weather packets stored in our database for station/object IR4UCA-3. If no packets are shown the sender has not sent any weather packets the latest 1 day(s).
| Time | Temp. | Humidity | Pressure | Rain* | Wind** | Luminosity | Snow |
|---|---|---|---|---|---|---|---|
| 1778051172 | 14.44° C | 91% | 1009.3 hPa | 1.78 mm | - | - | - |
| 1778051049 | 14.44° C | 91% | 1009.4 hPa | 1.78 mm | - | - | - |
| 1778050833 | 14.44° C | 91% | 1009.3 hPa | 2.03 mm | - | - | - |
| 1778050692 | 14.44° C | 91% | 1009.4 hPa | 1.78 mm | - | - | - |
| 1778050570 | 14.44° C | 91% | 1009.4 hPa | 1.78 mm | - | - | - |
| 1778050445 | 14.44° C | 91% | 1009.3 hPa | 2.03 mm | - | - | - |
| 1778050322 | 14.44° C | 91% | 1009.4 hPa | 2.29 mm | - | - | - |
| 1778050214 | 14.44° C | 91% | 1009.4 hPa | 2.29 mm | - | - | - |
| 1778049965 | 14.44° C | 91% | 1009.4 hPa | 2.54 mm | - | - | - |
| 1778049483 | 14.44° C | 91% | 1009.3 hPa | 3.3 mm | - | - | - |
| 1778049362 | 14.44° C | 91% | 1009.2 hPa | 3.05 mm | - | - | - |
| 1778049241 | 14.44° C | 91% | 1009.3 hPa | 3.3 mm | - | - | - |
| 1778049121 | 14.44° C | 91% | 1009.3 hPa | 3.3 mm | - | - | - |
| 1778049001 | 14.44° C | 91% | 1009.4 hPa | 3.3 mm | - | - | - |
| 1778048881 | 14.44° C | 91% | 1009.5 hPa | 3.3 mm | - | - | - |
| 1778048632 | 14.44° C | 91% | 1009.6 hPa | 3.3 mm | - | - | - |
| 1778048389 | 14.44° C | 91% | 1009.7 hPa | 2.79 mm | - | - | - |
| 1778048011 | 14.44° C | 91% | 1009.5 hPa | 2.54 mm | - | - | - |
| 1778047890 | 14.44° C | 91% | 1009.5 hPa | 2.54 mm | - | - | - |
| 1778047770 | 14.44° C | 91% | 1009.6 hPa | 2.54 mm | - | - | - |
| 1778047650 | 14.44° C | 91% | 1009.6 hPa | 2.54 mm | - | - | - |
| 1778047531 | 14.44° C | 91% | 1009.7 hPa | 2.29 mm | - | - | - |
| 1778047039 | 14.44° C | 91% | 1009.5 hPa | 2.29 mm | - | - | - |
| 1778046551 | 14.44° C | 91% | 1009.6 hPa | 2.03 mm | - | - | - |
| 1778046318 | 14.44° C | 91% | 1009.6 hPa | 1.78 mm | - | - | - |
* Rain latest hour (hover to see other rain measurements)
** Current wind speed in m/s (hover to see current wind gust speed)